Weather History for Hibbing, MN

Change the Weather History Date:

Wednesday, March 6, 2013

  Actual Average Record
Temperature  
Mean Temperature 12 °F -  
Max Temperature 24 °F 29 °F 59 °F (1987)
Min Temperature -2 °F 5 °F -18 °F (1980)
Degree Days  
Heating Degree Days 52    
Moisture  
Dew Point 5 °F    
Average Humidity 77    
Maximum Humidity 92    
Minimum Humidity 60    
Precipitation  
Precipitation 0.00 in - - ()
Sea Level Pressure  
Sea Level Pressure 30.38 in    
Wind  
Wind Speed 5 mph (NW)    
Max Wind Speed 10 mph    
Max Gust Speed -    
Visibility 8 miles    
Events Snow    
Averages and records for this station are not official NWS values.
T = Trace of Precipitation, MM = Missing Value Source: NWS Daily Summary

Daily Weather History Graph

Daily Weather History Graph

Search for Another Location

Airport:

Trip Planner

Search our weather history database for the weather conditions in past years. The results will help you decide how hot, cold, wet, or windy it might be!

Date:

Astronomy

Mar. 06, 2013 Rise Set
Actual Time 6:41 AM CST 6:04 PM CST
Civil Twilight 6:10 AM CST 6:34 PM CST
Nautical Twilight 5:35 AM CST 7:10 PM CST
Astronomical Twilight 4:59 AM CST 7:46 PM CST
Moon 3:08 AM CST (3/6) 12:29 PM CST (3/6)
Length of Visible Light 12h 23m
Length of Day
11h 22m
Waning Crescent, 29% of the Moon is Illuminated
Mar 6
Waning Crescent
Mar 11
New
Mar 19
First Quarter
Mar 27
Full
Apr 2
Last Quarter

Hourly Weather History & Observations

Time (CST) Temp. Windchill Dew Point Humidity Pressure Visibility Wind Dir Wind Speed Gust Speed Precip Events Conditions
12:53 AM 12.0 °F 2.7 °F 8.1 °F 84% 30.37 in 9.0 mi NW 5.8 mph - 0.00 in   Overcast
1:38 AM 12.2 °F 2.9 °F 8.6 °F 85% 30.29 in 10.0 mi WNW 5.8 mph - N/A   Scattered Clouds
1:53 AM 10.9 °F 1.4 °F 7.0 °F 84% 30.38 in 10.0 mi WNW 5.8 mph - N/A   Clear
2:53 AM 6.1 °F -0.9 °F 1.9 °F 83% 30.38 in 10.0 mi WNW 3.5 mph - N/A   Clear
3:53 AM 7.0 °F 0.1 °F 3.0 °F 84% 30.39 in 10.0 mi NW 3.5 mph - N/A   Clear
4:53 AM 5.0 °F - 1.9 °F 87% 30.39 in 10.0 mi Calm Calm - N/A   Clear
5:13 AM 1.4 °F -6.2 °F -5.8 °F 72% 30.30 in 10.0 mi WNW 3.5 mph - N/A   Partly Cloudy
5:52 AM 9.0 °F -3.2 °F 3.9 °F 80% 30.41 in 10.0 mi NNW 8.1 mph - N/A   Mostly Cloudy
6:05 AM 3.2 °F -6.2 °F 1.4 °F 92% 30.32 in 10.0 mi North 4.6 mph - N/A   Mostly Cloudy
6:53 AM 10.0 °F 3.6 °F 6.1 °F 84% 30.42 in 10.0 mi NNW 3.5 mph - N/A   Overcast
7:27 AM 8.6 °F 2.0 °F 3.2 °F 79% 30.34 in 10.0 mi WNW 3.5 mph - N/A   Overcast
7:53 AM 8.1 °F -3.2 °F 3.9 °F 83% 30.44 in 4.0 mi NNW 6.9 mph - N/A   Overcast
8:13 AM 6.8 °F -5.9 °F 3.2 °F 85% 30.35 in 2.0 mi NW 8.1 mph - 0.00 in Snow Light Snow
8:28 AM 6.8 °F -2.0 °F 1.4 °F 79% 30.35 in 5.0 mi NW 4.6 mph - 0.00 in Snow Light Snow
8:51 AM 8.6 °F -1.3 °F 3.2 °F 79% 30.35 in 4.0 mi NW 5.8 mph - 0.00 in   Scattered Clouds
8:53 AM 8.1 °F -2.0 °F 3.9 °F 83% 30.45 in 4.0 mi NW 5.8 mph - 0.00 in   Scattered Clouds
9:22 AM 10.4 °F -0.4 °F 6.8 °F 85% 30.35 in 4.0 mi NW 6.9 mph - N/A   Haze
9:46 AM 12.2 °F 1.7 °F 8.6 °F 85% 30.35 in 5.0 mi WNW 6.9 mph - 0.00 in   Haze
9:53 AM 12.9 °F 0.7 °F 8.1 °F 81% 30.44 in 8.0 mi NW 9.2 mph - 0.00 in   Overcast
10:53 AM 16.0 °F 4.4 °F 9.0 °F 74% 30.43 in 3.0 mi NW 9.2 mph - 0.00 in Snow Light Snow
11:05 AM 15.8 °F 4.2 °F 8.6 °F 73% 30.34 in 7.0 mi NNW 9.2 mph - 0.00 in   Overcast
11:53 AM 19.0 °F 9.0 °F 10.0 °F 68% 30.42 in 8.0 mi NNW 8.1 mph - 0.00 in   Overcast
12:53 PM 19.9 °F 11.1 °F 10.9 °F 68% 30.41 in 10.0 mi NW 6.9 mph - 0.00 in   Overcast
1:53 PM 21.9 °F 11.0 °F 12.0 °F 66% 30.39 in 10.0 mi NW 10.4 mph - 0.00 in   Overcast
2:53 PM 23.0 °F 14.7 °F 10.9 °F 60% 30.39 in 10.0 mi NNW 6.9 mph - 0.00 in   Overcast
3:53 PM 24.1 °F 16.0 °F 12.0 °F 60% 30.38 in 10.0 mi WNW 6.9 mph - 0.00 in   Mostly Cloudy
4:53 PM 24.1 °F 15.2 °F 12.0 °F 60% 30.38 in 10.0 mi WNW 8.1 mph - 0.00 in   Overcast
5:53 PM 23.0 °F 18.4 °F 10.9 °F 60% 30.38 in 10.0 mi West 3.5 mph - N/A   Overcast
6:16 PM 21.2 °F 14.9 °F 10.4 °F 63% 30.29 in 10.0 mi WNW 4.6 mph - N/A   Scattered Clouds
6:53 PM 14.0 °F 8.2 °F 7.0 °F 74% 30.40 in 10.0 mi WNW 3.5 mph - N/A   Clear
7:53 PM 7.0 °F - 3.0 °F 84% 30.41 in 10.0 mi Calm Calm - N/A   Clear
8:53 PM 3.9 °F - -0.0 °F 84% 30.43 in 10.0 mi Calm Calm - N/A   Clear
9:53 PM 1.0 °F - -2.9 °F 83% 30.43 in 10.0 mi Calm Calm - N/A   Clear
10:53 PM -2.0 °F - -7.1 °F 79% 30.42 in 10.0 mi Calm Calm - N/A   Clear